NOAA 16 DEB, 41126

Orbit data source: Space-Track

NOAA 16 DEB, 41126 is space debris in SSO originally from a launch on Thu, 21 Sep 2000 UTC launched from the Air Force Western Test Range (AFWTR). Debris objects in space refer to the collection of defunct objects orbiting the Earth. Examples of debris include non-operational satellites, rocket bodies, and fragments generated from explosions, collisions, or faulty payload assembly.

Loading next visibility...
Identifier
41126, 2000-055BH
Orbit
SSO
Country
Flag of USUS
Related business
Manufacturer
Unknown
Mission
Spacecraft
Bus & Motor
Unknown
Mass
Unknown
Launch date (UTC)
2000-09-21 (25 years ago)
Launch vehicle
Unknown
Launch site
Air Force Western Test Range (AFWTR)
Object type
Payload
Rocket body
Debris
Shape & HBR
Unknown shape, 0.1 m
Radar Cross Section
Small (<0.1 m²)

Expand to show TLE details & history
Last TLE update: 21 hours ago

TLE from 21 hours ago
0 NOAA 16 DEB
1 41126U 00055BH  25308.46249013  .00003459  00000-0  18619-2 0  9999
2 41126  98.7654 310.7426 0066118 275.5456  83.8178 14.12350569507591
Epoch: 2025-11-04T11:05Z
TLE epoch observation values (Epoch: 2025-11-04T11:05:59.147Z)
Latitude
0.00003°
Longitude
100.29699°
Altitude
849.406 km
Speed
7.43 km/s
True Right ascension
20h 42m 58s
True Declination
0° 00' 00"
Sunlit
Object was in daylight at epoch
Visualization orbit readout
Latitude
Unknown
Longitude
Unknown
Altitude
Unknown
Speed
Unknown
Apparent Right ascension
Unknown
Apparent Declination
Unknown
Sunlit
N/A
Visualization observer readout
Local Sidereal Time
03:44:41
Azimuth
Unknown
Elevation
Unknown
Doppler factor
Unknown
Orbital elements
Apogee altitude
896.292 km
Perigee altitude
800.729 km
Semi-major axis
7,226.648 km
Eccentricity
0.00661
Inclination
98.7654°
RAAN
310.7426°
Arg. of periapsis
275.5456°
True anomaly
84.5717°
Mean anomaly
83.8178°
Eccentric anomaly
84.19469°
Mean motion
3.53295 °/min
Orbital period
101.9 mins
BSTAR
0.0018619
Loading maneuver chart data...
Computing Atmospheric mass density...
Loading historical data...
Loading historical data...
Loading historical data...
Loading historical data...
Loading historical data...
Loading historical data...
Loading historical data...

Documentation

Showing up to 5 results
|